Main page
METAR-TAF:

METAR-TAF

Airports :

Srinagar International Airport

Srinagar, India

latitude: 33-59-14N, longitude: 074-46-27E, elevation: 1655 m

Current weather observation

The report was made 9 hours and 0 minutes ago, at 13:30 UTC
Wind 3 kt from the Southwest
Temperature 8°C
Humidity 61%
Pressure 1020 hPa
Visibility: 3500 m
Scattered clouds at a height of 9000 ft
Scattered clouds at a height of 20000 ft
smoke

METAR: VISR 171330Z 22003KT 3500 FU SCT090 SCT200 08/01 Q1020 NOSIG

Time: 04:00 (22:30 UTC)


TAF: missing

Weather observations and forecasts of more than 4000 airports (METAR and TAF reports).

The available stations are represented by yellow and red dots on the map.

Hover mouse over dot to see the name of the station.

Then click to see weather observations and forecasts.

To change the map : click on the green buttons with a black cross to zoom in, on the green button with a dash to zoom out, or on the green arrows for adjacent maps.


METAR-TAF: